Regional Weather Roundup
Issued by NWS

Home | Current Version | Previous Version | Graphics & Text | Print | Product List | Glossary On
Versions: 1 2 3 4 5 6 7 8 9 10 11 12 13 14 15 16 17 18 19 20 21 22 23 24 25 26 27 28 29 30 31 32 33 34 35 36 37 38 39 40 41 42 43 44 45 46 47 48 49 50
000
ASUS43 KMPX 242001
RWRMN
WEATHER ROUNDUP FOR MINNESOTA
NATIONAL WEATHER SERVICE TWIN CITIES/CHANHASSEN MN
300 PM CDT SUN JUL 24 2016


NOTE: "FAIR" INDICATES FEW OR NO CLOUDS BELOW 12,000 FEET WITH NO
SIGNIFICANT WEATHER AND/OR OBSTRUCTIONS TO VISIBILITY. N/A MEANS
CURRENT SKY AND/OR WEATHER CONDITIONS ARE NOT AVAILABLE.

MNZ060>063-068>070-242100-
   Twin Cities Metro

CITY           SKY/WX    TMP DP  RH WIND       PRES   REMARKS
TWIN CITIES    MOSUNNY   85  63  47 NW12G25   29.89R
ST PAUL        MOSUNNY   84  63  49 N8        29.87F
CRYSTAL        SUNNY     83  60  45 N12G17    29.88R
BLAINE         MOSUNNY   84  63  48 NW12G18   29.89S
LAKEVILLE      PTSUNNY   79  64  61 W9        29.91R
EDEN PRAIRIE   MOSUNNY   84  62  47 NW9       29.89S
LAKEVILLE      PTSUNNY   79  64  61 W9        29.91R
SOUTH ST PAUL  MOSUNNY   82  61  49 NW9       29.88S
LAKE ELMO      FAIR      81  64  57 W8        29.89S
$$
MNZ001>005-007-008-013>017-022>024-027-028-242100-
   Northwest Minnesota

CITY           SKY/WX    TMP DP  RH WIND       PRES   REMARKS
HALLOCK        MOSUNNY   79  63  57 NW17G23   29.85S
ROSEAU         SUNNY     79  64  61 W16G24    29.83S
WARROAD        MOSUNNY   75  64  69 W14G24    29.82S
THIEF RVR FALL MOSUNNY   75  61  61 NW16      29.88S
CROOKSTON      SUNNY     79  63  57 NW18G26   29.88S
FOSSTON        MOSUNNY   75  61  60 W20G25    29.89S
DETROIT LAKES  SUNNY     77  59  53 W15G22    29.93R
MOORHEAD       MOSUNNY   81  57  44 W21       29.92R
PARK RAPIDS    MOSUNNY   78  60  53 NW14G25   29.89F
MAHNOMEN       MOCLDY    78  61  55 W18G24    29.90R
$$
MNZ006-009>011-018-025>026-242100-
   North Central Minnesota

CITY           SKY/WX    TMP DP  RH WIND       PRES   REMARKS
BAUDETTE       PTSUNNY   78  58  49 W18G28    29.81S
FLAG ISLAND    MOSUNNY   73  57  56 W23G30    29.77S
INTL FALLS     MOSUNNY   76  61  59 W13G24    29.80R
WASKISH        MOSUNNY   79  63  57 W17G23    29.84S
BIG FORK       MOSUNNY   77  59  53 W9G17     29.84S
LONGVILLE      MOSUNNY   79  61  53 W7G16     29.87R
GRAND RAPIDS   MOSUNNY   77  59  53 NW17      29.87S
CRANE LAKE     PTSUNNY   73  61  64 NW5       29.80S
ORR            PTSUNNY   75  57  53 W9G16     29.79R
COOK           PTSUNNY   77  61  57 W9G16     29.82S
WALKER         FAIR      78  61  56 W13G20    29.87S
$$
MNZ012-019>021-037-242100-
   Northeast Minnesota

CITY           SKY/WX    TMP DP  RH WIND       PRES   REMARKS
DULUTH         MOSUNNY   79  60  52 NW13G24   29.83S
ELY            PTSUNNY   75  57  53 W16G23    29.81R
HIBBING        MOSUNNY   76  59  55 W10G21    29.83S
EVELETH        MOSUNNY   78  59  51 W14G22    29.84S
DULUTH HARBOR  MOSUNNY   82  64  54 W17       29.80F
TWO HARBORS    SUNNY     82  64  54 W15G22    29.78S
SILVER BAY     MOSUNNY   81  61  50 W7        29.77S
GRAND MARAIS     N/A     66  60  81 SW12      29.72S
G MARAIS ARPRT MOSUNNY   75  55  50 W12G18    29.79R
$$
MNZ029>031-032-039>041-046>048-054>057-064-242100-
   West Central Minnesota

CITY           SKY/WX    TMP DP  RH WIND       PRES   REMARKS
FERGUS FALLS   MOSUNNY   79  63  57 NW12G20   29.95R
WHEATON        MOSUNNY   82  63  51 W12G18    29.98R
MORRIS         MOSUNNY   82  63  51 W9        29.97R
ALEXANDRIA     MOSUNNY   78  61  55 W15       29.97R
ELBOW LAKE     PTSUNNY   79  65  61 NW13      29.96R
WADENA         MOSUNNY   75  61  60 W12       29.92R
GLENWOOD       MOSUNNY   79  63  57 W16       29.97R
APPLETON       PTSUNNY   81  61  50 NW13      29.98R
BENSON         MOSUNNY   81  61  50 NW15      29.98R
ORTONVILLE     CLOUDY    81  57  44 NW12      29.99R
MADISON        CLOUDY    81  61  50 W9G18     30.00R
WILLMAR        FAIR      79  64  61 NW15      29.99R
$$
MNZ033>034-036-042>043-049>051-058-059-242100-
   Central Minnesota

CITY           SKY/WX    TMP DP  RH WIND       PRES   REMARKS
ST CLOUD       SUNNY     80  63  55 NW12      29.91R
SAUK CENTRE    FAIR      78  60  53 W14G22    29.95R
PAYNESVILLE    MOSUNNY   77  62  59 W17G23    29.97R
AITKIN         MOSUNNY   79  57  47 W5        29.86S
PINE RIVER     SUNNY     77  61  57 NW8G17    29.92R
BRAINERD       MOSUNNY   78  58  49 W13       29.88F
STAPLES        MOSUNNY   79  59  50 NW15G22   29.91R
LONG PRAIRIE   FAIR      79  59  50 W14       29.94R
LITTLE FALLS   MOSUNNY   79  55  44 W15       29.91R
LITCHFIELD     SUNNY     81  64  57 W10       29.96R
BUFFALO        SUNNY     80  60  50 W13       29.92R
MAPLE LAKE     SUNNY     80  65  60 NW8       29.93R
HUTCHINSON     SUNNY     79  67  65 W13       29.97R
$$
MNZ037-044-045-052-053-242100-
   East Central Minnesota

CITY           SKY/WX    TMP DP  RH WIND       PRES   REMARKS
PRINCETON      SUNNY     82  63  51 W8        29.90R
MORA           SUNNY     79  59  50 W8        29.88F
CAMBRIDGE      SUNNY     82  64  54 NW15      29.86S
RUSH CITY      SUNNY     81  62  53 NW9       29.86F
MOOSE LAKE     SUNNY     79  61  53 NW7       29.84S
HINCKLEY       FAIR      79  63  57 NW6G16    29.86S
CLOQUET        MOSUNNY   81  57  44 W13G18    29.84F
MCGREGOR       MOSUNNY   79  61  53 NW10G18   29.87S
$$
MNZ071>073-080-081-089-090-097-098-242100-
   Southwest Minnesota

CITY           SKY/WX    TMP DP  RH WIND       PRES   REMARKS
MONTEVIDEO     MOSUNNY   81  63  54 NW13G18   30.02R
GRANITE FALLS  CLOUDY    79  65  60 W14G21    30.03R
CANBY          CLOUDY    80  62  55 NW6       30.03S
MARSHALL       CLOUDY    78  62  57 W9        30.02R
REDWOOD FALLS  CLOUDY    80  62  54 W20       30.01R
OLIVIA         PTSUNNY   79  63  57 W17G23    30.00R
PIPESTONE      CLOUDY    73  63  68 W9        30.08S
WINDOM         MOSUNNY   77  63  61 W12       30.06R
WORTHINGTON    LGT RAIN  74  65  73 NW6       30.05R
JACKSON        CLOUDY    77  59  53 W10G16    30.06R
TRACY          CLOUDY    75  66  72 NW5       30.03R
SLAYTON        RAIN      75  61  62 W5        30.04F
$$
MNZ065>067-074>077-082>085-091>093-242100-
   South Central Minnesota

CITY           SKY/WX    TMP DP  RH WIND       PRES   REMARKS
MANKATO        MOSUNNY   79  63  57 NW12      29.95R
NEW ULM        PTSUNNY   79  63  57 NW15      29.97R
ST JAMES       CLOUDY    73  59  60 W14       29.99R
FAIRMONT       CLOUDY    79  45  29 W16       29.98R
GLENCOE        SUNNY     80  65  59 NW14      29.93R
FARIBAULT      PTSUNNY   81  66  61 W14       29.93R
OWATONNA       MOSUNNY   81  63  54 W13       29.94R
WASECA         MOSUNNY   79  64  61 W13G18    29.96R
ALBERT LEA     MOSUNNY   81  64  57 W7        29.94F
$$
MNZ078>079-086>088-094>096-242100-
   Southeast Minnesota

CITY           SKY/WX    TMP DP  RH WIND       PRES   REMARKS
ROCHESTER      SUNNY     82  66  58 W12G17    29.92R
RED WING       SUNNY     84  61  45 W13       29.86S
STANTON        PTSUNNY   81  64  57 W9        29.89S
DODGE CENTER   SUNNY     82  63  51 W14G20    29.93S
WINONA         SUNNY     84  63  48 W8        29.87R
AUSTIN           N/A     81 N/A N/A W13       29.94R
PRESTON        SUNNY     81  61  50 NW12      29.92S
$$
ABBREVIATIONS USED IN REMARKS
   TC - TEMPERATURES IN CELSIUS
  WCI - WIND CHILL INDEX
   HX - HEAT INDEX
  VSB - VISIBILITY
$$




USA.gov is the U.S. government's official web portal to all federal, state and local government web resources and services.